Change the Weather History Date:

Wednesday, April 17, 2013

  Actual Average Record
Temperature  
Mean Temperature 48 °F 47 °F  
Max Temperature 56 °F 55 °F 77 °F (1983)
Min Temperature 39 °F 39 °F 28 °F (2000)
Degree Days  
Heating Degree Days 17 18  
Month to date heating degree days 280 324  
Since 1 July heating degree days 4556 4817  
Cooling Degree Days 0 0  
Month to date cooling degree days 0 0  
Year to date cooling degree days 0 0  
Moisture  
Dew Point 38 °F    
Average Humidity 72    
Maximum Humidity 89    
Minimum Humidity 55    
Precipitation  
Precipitation 0.07 in 0.26 in 1.71 in (2014)
Month to date precipitation 6.96 4.79  
Year to date precipitation 45.06 40.58  
Sea Level Pressure  
Sea Level Pressure 30.46 in    
Wind  
Wind Speed 4 mph (West)    
Max Wind Speed 15 mph    
Max Gust Speed 20 mph    
Visibility 7 miles    
Events Rain    
T = Trace of Precipitation, MM = Missing Value Source: NWS Daily Summary

Daily Weather History Graph

Daily Weather History Graph

Search for Another Location

Airport or City:

Trip Planner

Search our weather history database for the weather conditions in past years. The results will help you decide how hot, cold, wet, or windy it might be!

Date:

Astronomy

Apr. 17, 2013 Rise Set
Actual Time 6:24 AM PDT 8:11 PM PDT
Civil Twilight 5:51 AM PDT 8:44 PM PDT
Nautical Twilight 5:11 AM PDT 9:25 PM PDT
Astronomical Twilight 4:27 AM PDT 10:09 PM PDT
Moon 11:35 AM PDT (4/17) 2:02 AM PDT (4/17)
Length of Visible Light 14h 53m
Length of Day
13h 47m
Waxing Crescent, 43% of the Moon is Illuminated
Apr 17
Waxing Crescent
Apr 18
First Quarter
Apr 25
Full
May 2
Last Quarter
May 9
New

Hourly Weather History & Observations

Time (PDT) Temp. Windchill Dew Point Humidity Pressure Visibility Wind Dir Wind Speed Gust Speed Precip Events Conditions
12:53 AM 43.0 °F - 30.9 °F 62% 30.42 in 10.0 mi Calm Calm - N/A   Clear
1:53 AM 41.0 °F - 30.9 °F 67% 30.42 in 10.0 mi Calm Calm - N/A   Clear
2:53 AM 39.9 °F - 32.0 °F 73% 30.42 in 9.0 mi Calm Calm - N/A   Clear
3:53 AM 41.0 °F - 32.0 °F 70% 30.42 in 10.0 mi Calm Calm - N/A   Partly Cloudy
4:53 AM 39.9 °F - 32.0 °F 73% 30.43 in 10.0 mi Calm Calm - N/A   Partly Cloudy
5:53 AM 41.0 °F 39.0 °F 32.0 °F 70% 30.43 in 10.0 mi East 3.5 mph - N/A   Scattered Clouds
6:53 AM 41.0 °F - 33.8 °F 76% 30.44 in 8.0 mi Calm Calm - N/A   Mostly Cloudy
7:51 AM 42.8 °F - 33.8 °F 70% 30.44 in 8.0 mi Calm Calm - N/A   Overcast
7:53 AM 43.0 °F - 34.0 °F 71% 30.45 in 8.0 mi Calm Calm - N/A   Overcast
8:51 AM 46.4 °F - 35.6 °F 66% 30.46 in 8.0 mi Calm Calm - N/A   Mostly Cloudy
8:53 AM 46.9 °F - 36.0 °F 66% 30.46 in 8.0 mi Calm Calm - N/A   Mostly Cloudy
9:53 AM 51.1 °F - 41.0 °F 68% 30.46 in 7.0 mi Calm Calm - N/A   Mostly Cloudy
10:53 AM 53.1 °F - 41.0 °F 64% 30.46 in 7.0 mi Variable 5.8 mph - N/A   Overcast
11:38 AM 53.6 °F - 42.8 °F 67% 30.47 in 7.0 mi NW 8.1 mph - N/A   Overcast
11:53 AM 53.1 °F - 41.0 °F 64% 30.48 in 7.0 mi NW 10.4 mph - N/A   Overcast
12:53 PM 55.0 °F - 39.9 °F 57% 30.47 in 7.0 mi NNW 10.4 mph 17.3 mph N/A   Overcast
1:53 PM 53.1 °F - 39.9 °F 61% 30.48 in 7.0 mi WNW 11.5 mph 18.4 mph N/A   Overcast
2:51 PM 53.6 °F - 39.2 °F 58% 30.48 in 8.0 mi West 11.5 mph 17.3 mph N/A   Mostly Cloudy
2:53 PM 52.0 °F - 39.0 °F 61% 30.48 in 8.0 mi WNW 10.4 mph 17.3 mph N/A   Overcast
3:33 PM 50.0 °F - 37.4 °F 62% 30.48 in 8.0 mi West 11.5 mph - N/A   Overcast
3:44 PM 50.0 °F - 39.2 °F 66% 30.48 in 8.0 mi West 10.4 mph - N/A   Overcast
3:53 PM 48.9 °F - 37.9 °F 66% 30.49 in 8.0 mi WNW 10.4 mph 17.3 mph N/A   Overcast
4:53 PM 48.0 °F - 39.9 °F 74% 30.49 in 5.0 mi West 9.2 mph - 0.00 in Rain Light Rain
5:19 PM 46.4 °F 41.1 °F 41.0 °F 81% 30.49 in 4.0 mi West 11.5 mph 17.3 mph 0.01 in Rain Light Rain
5:53 PM 46.0 °F 41.9 °F 39.9 °F 79% 30.49 in 7.0 mi WSW 8.1 mph - 0.01 in Rain Light Rain
6:11 PM 46.4 °F 43.5 °F 39.2 °F 76% 30.49 in 5.0 mi SW 5.8 mph - 0.00 in Rain Light Rain
6:53 PM 46.0 °F 43.9 °F 41.0 °F 83% 30.48 in 6.0 mi WSW 4.6 mph - 0.00 in   Haze
7:02 PM 46.4 °F 43.5 °F 39.2 °F 76% 30.47 in 6.0 mi WSW 5.8 mph - N/A   Haze
7:53 PM 46.0 °F - 41.0 °F 83% 30.47 in 5.0 mi Calm Calm - 0.00 in Rain Light Rain
8:15 PM 46.4 °F - 41.0 °F 81% 30.46 in 6.0 mi Calm Calm - 0.00 in Rain Light Rain
8:27 PM 44.6 °F - 41.0 °F 87% 30.46 in 7.0 mi Calm Calm - 0.00 in Rain Light Rain
8:53 PM 45.0 °F - 41.0 °F 86% 30.47 in 7.0 mi Calm Calm - 0.00 in   Overcast
9:53 PM 45.0 °F - 41.0 °F 86% 30.47 in 5.0 mi Calm Calm - 0.01 in Rain Light Rain
10:06 PM 44.6 °F - 41.0 °F 87% 30.47 in 5.0 mi Calm Calm - 0.00 in Rain Light Rain
10:53 PM 45.0 °F - 41.0 °F 86% 30.46 in 5.0 mi Calm Calm - 0.01 in Rain Light Rain
11:53 PM 45.0 °F - 41.0 °F 86% 30.46 in 5.0 mi Calm Calm - 0.03 in Rain Light Rain